x

Yucatan Basin - 120 Nm Ese Of Cozumel, Mx (42056) Wave Buoy

10:50 - Sat 19th Apr 2014 All times are CDT. -5 hours from GMT.

  • Sig Wave height 2.6ft
  • Swell Direction
  • Peak Period 6s
  • Average Period 6s
  • Wind
    4mph, 7mph gusts
  • Sea Temp 83°f
  • Air Temp 81°f
  • Sea Pressure 1016.2mb
  •  Yucatan Basin - 120 Nm Ese Of Cozumel, Mx
  •  Yucatan Basin - 120 Nm Ese Of Cozumel, Mx

More Historic Weather Station data

Upgrade to MSW Pro to gain access to the past 30 days of data for over 8000 Wavebouys and Weather Stations around the globe.

Join Pro

Comparision Forecast

View Surf forecast
   
sam. 04/19 10:50 2.5ft 6s 6s 4 7 mph 1016.2mb 83f 81f
9:50 2.5ft 6s 6s 4 7 mph 1016mb 82f 81f
8:50 2.5ft 7s 6s 4
mph
1015.6mb 82f 81f
7:50 3ft 7s 6s 4
mph
1015.1mb 82f 81f
6:50 2.5ft 7s 6s 2 4 mph 1014.7mb 82f 81f
5:50 2.5ft 6s 6s 2 4 mph 1014.1mb 82f 80f
4:50 2.5ft 7s 6s 2
mph
1013.6mb 82f 80f
3:50 2.5ft 7s 6s 2
mph
1013.2mb 82f 80f
2:50 2.5ft 7s 5s 4 7 mph 1013.3mb 82f 80f
1:50 2ft 8s 5s 4 7 mph 1013.8mb 82f 81f
12:50 2ft 8s 5s 4 7 mph 1014.3mb 82f 81f
ven. 04/18 11:50 2ft 8s 5s 9 11 mph 1014.5mb 82f 81f
10:50 2ft 6s 5s 9
mph
1014.5mb 82f 81f
9:50 2ft 6s 5s 7 9 mph 1014.5mb 82f 82f
8:50 2.5ft 6s 5s 9 11 mph 1014.4mb 82f 82f
7:50 2ft 6s 5s 9 11 mph 1013.5mb 82f 82f
6:50 2.5ft 6s 5s 7
mph
1013.7mb 83f 82f
5:50 2ft 6s 5s 7 9 mph 1013.5mb 83f 82f
4:50 2.5ft 7s 5s 4 7 mph 1013.6mb 83f 82f
3:50 2.5ft 7s 5s 4 7 mph 1013.4mb 83f 82f
2:50 2.5ft 6s 5s 4 7 mph 1013.7mb 83f 82f
1:50 2.5ft 6s 5s 9 11 mph 1014mb 83f 82f
12:50 2.5ft 7s 5s 9
mph
1014.4mb 82f 82f
11:50 2.5ft 6s 5s 11 13 mph 1014.5mb 82f 82f
10:50 2.5ft 7s 5s 11 13 mph 1014.2mb 82f 81f
9:50 2.5ft 7s 5s 9 11 mph 1014.4mb 82f 81f
8:50 3ft 7s 5s 7 9 mph 1014.3mb 82f 81f
7:50 3ft 7s 5s 4 7 mph 1014.3mb 82f 81f
6:50 3ft 6s 5s 4 7 mph 1013.8mb 82f 80f
5:50 3ft 6s 5s 9
mph
1012.9mb 82f 80f
4:50 3ft 6s 5s 9
mph
1011.9mb 82f 80f
3:50 3ft 6s 5s 7 9 mph 1011.8mb 82f 80f
2:50 3ft 6s 5s 7 9 mph 1012.3mb 82f 80f
1:50 3ft 5s 5s 7 9 mph 1013mb 82f 80f
12:50 3ft 6s 5s 9
mph
1013.8mb 82f 80f
jeu. 04/17 11:50 3.5ft 6s 5s 9 11 mph 1014.2mb 82f 80f
10:50 3ft 8s 5s 9 11 mph 1014.1mb 82f 81f
9:50 2.5ft 9s 5s 7 9 mph 1013.8mb 82f 81f
8:50 2.5ft 8s 5s 9 11 mph 1013.4mb 82f 82f
7:50 2.5ft 8s 5s 9 11 mph 1012.9mb 82f 82f
6:50 2.5ft 9s 5s 11 13 mph 1012.4mb 82f 82f
5:50 2.5ft 9s 5s 11 13 mph 1012.4mb 82f 82f
4:50 2.5ft 10s 5s 9 11 mph 1012.4mb 83f 82f
3:50 3ft 9s 5s 9 11 mph 1012.8mb 83f 82f
2:50 3ft 9s 5s 9 11 mph 1013.5mb 82f 82f
1:50 2.5ft 9s 5s 9 11 mph 1014.4mb 82f 82f
12:50 3ft 9s 5s 9 11 mph 1015mb 82f 82f
11:50 3.5ft 9s 5s 11 13 mph 1015.2mb 82f 81f
10:50 3.5ft 10s 6s 11 13 mph 1015.6mb 82f 81f
9:50 3.5ft 10s 5s 13 16 mph 1015.4mb 82f 82f
8:50 3.5ft 11s 5s 16 18 mph 1015.1mb 81f 81f
7:50 3.5ft 11s 6s 13
mph
1014.8mb 81f 81f
6:50 3.5ft 10s 6s 11 13 mph 1014mb 81f 81f
5:50 3.5ft 10s 6s 11 13 mph 1013.5mb 81f 81f
4:50 4ft 11s 6s 11 13 mph 1013.2mb 81f 81f
3:50 4ft 11s 5s 13 16 mph 1013.2mb 81f 81f
12:50 4.5ft 11s 6s 16 18 mph 1014.2mb 81f 80f
mer. 04/16 11:50 4.5ft 11s 7s 13 18 mph 1014.8mb 82f 81f
10:50 4.5ft 11s 7s 13 16 mph 1014.7mb 82f 81f
9:50 4.5ft 11s 7s 11 13 mph 1014.5mb 82f 81f
8:50 4.5ft 11s 7s 13 16 mph 1014mb 82f 81f
7:50 4.5ft 11s 7s 7 9 mph 1013.7mb 82f 81f
6:50 3.5ft 11s 6s 7 9 mph 1013.2mb 82f 81f
5:50 3ft 11s 5s 9 11 mph 1012.7mb 82f 81f
4:50 2.5ft 5s 5s 9 11 mph 1012.1mb 82f 81f
3:50 3ft 5s 5s 9 11 mph 1012.4mb 82f 81f
2:50 3ft 5s 5s 11
mph
1012.5mb 82f 81f
1:50 2.5ft 5s 4s 11 13 mph 1013mb 82f 81f
12:50 3ft 5s 4s 11 13 mph 1014mb 82f 81f
11:50 2.5ft 5s 4s 16 18 mph 1014.4mb 82f 81f
10:50 3ft 5s 5s 13 16 mph 1014.8mb 82f 81f
9:50 3ft 5s 4s 13 16 mph 1014.8mb 81f 81f
8:50 3ft 6s 4s 13 16 mph 1013.9mb 81f 81f
7:50 3.5ft 5s 5s 13 16 mph 1013.6mb 81f 81f
6:50 3.5ft 6s 5s 13 16 mph 1013mb 81f 80f
5:50 3.5ft 6s 5s 11 13 mph 1012.6mb 81f 81f
4:50 3.5ft 5s 5s 11 13 mph 1012.3mb 81f 81f
3:50 3.5ft 6s 5s 13 18 mph 1012mb 81f 81f
2:50 3.5ft 6s 5s 13 16 mph 1012.5mb 81f 81f
1:50 3.5ft 6s 5s 16 18 mph 1012.4mb 81f 81f
12:50 4ft 6s 5s 16 18 mph 1012.6mb 82f 81f
mar. 04/15 11:50 4ft 6s 5s 16 20 mph 1012.9mb 82f 81f
10:50 4ft 6s 5s 13 18 mph 1013mb 82f 81f
9:50 4ft 6s 5s 11 13 mph 1012.7mb 82f 82f
8:50 4ft 7s 5s 13 16 mph 1012.1mb 82f 82f
7:50 4.5ft 6s 5s 11 13 mph 1011.4mb 82f 82f
6:50 4.5ft 7s 5s 11 13 mph 1011mb 82f 82f
5:50 5ft 7s 5s 11 13 mph 1010.5mb 82f 82f